This is the latest recevied weather packets stored in our database for station/object K5GTX. If no packets are shown the sender has not sent any weather packets the latest 1 day(s).
| Time | Temp. | Humidity | Pressure | Rain* | Wind** | Luminosity | Snow |
|---|---|---|---|---|---|---|---|
| 1778041801 | 17.22° C | 99% | 1016 hPa | 0 mm | - | 0 W/m² | - |
| 1778041501 | 17.22° C | 99% | 1015.8 hPa | 0 mm | - | 0 W/m² | - |
| 1778041198 | 17.22° C | 99% | 1016.1 hPa | 0 mm | - | 0 W/m² | - |
| 1778040896 | 17.22° C | 99% | 1015.9 hPa | 0 mm | - | 0 W/m² | - |
| 1778040593 | 17.22° C | 99% | 1015.5 hPa | 0 mm | - | 0 W/m² | - |
| 1778040291 | 17.78° C | 99% | 1015.6 hPa | 0 mm | - | 0 W/m² | - |
| 1778039986 | 17.78° C | 99% | 1015.5 hPa | 0 mm | - | 0 W/m² | - |
| 1778039684 | 17.78° C | 99% | 1015.6 hPa | 0 mm | - | 0 W/m² | - |
| 1778039380 | 18.33° C | 99% | 1015.5 hPa | 0 mm | - | 0 W/m² | - |
| 1778038774 | 18.89° C | 99% | 1015.2 hPa | 0 mm | - | 0 W/m² | - |
| 1778038472 | 18.89° C | 99% | 1015.4 hPa | 0 mm | - | 0 W/m² | - |
| 1778038168 | 18.89° C | 99% | 1015.2 hPa | 0 mm | - | 0 W/m² | - |
| 1778037866 | 18.89° C | 99% | 1014.7 hPa | 0 mm | - | 0 W/m² | - |
| 1778037562 | 19.44° C | 99% | 1014.7 hPa | 0 mm | - | 0 W/m² | - |
| 1778036957 | 20° C | 99% | 1014.6 hPa | 0 mm | - | 0 W/m² | - |
| 1778036655 | 20° C | 99% | 1014.5 hPa | 0 mm | - | 0 W/m² | - |
| 1778036351 | 20.56° C | 99% | 1014.5 hPa | 0 mm | - | 0 W/m² | - |
| 1778036049 | 20.56° C | 99% | 1014.4 hPa | 0 mm | - | 0 W/m² | - |
| 1778035745 | 20.56° C | 99% | 1014.5 hPa | 0 mm | - | 0 W/m² | - |
| 1778035138 | 20.56° C | 99% | 1013.8 hPa | 0 mm | - | 0 W/m² | - |
| 1778034835 | 21.11° C | 99% | 1013.4 hPa | 0 mm | - | 0 W/m² | - |
| 1778034532 | 21.11° C | 99% | 1013.5 hPa | 0 mm | - | 0 W/m² | - |
| 1778033927 | 21.67° C | 99% | 1013.3 hPa | 0 mm | - | 0 W/m² | - |
| 1778033624 | 21.67° C | 99% | 1013.3 hPa | 0 mm | - | 0 W/m² | - |
| 1778033019 | 22.78° C | 99% | 1012.4 hPa | 0 mm | - | 0 W/m² | - |
* Rain latest hour (hover to see other rain measurements)
** Current wind speed in m/s (hover to see current wind gust speed)